Regional Weather Roundup
Issued by NWS

Home | Current Version | Previous Version | Text Only | Print | Product List | Glossary Off
Versions: 1 2 3 4 5 6 7 8 9 10 11 12 13 14 15 16 17 18 19 20 21 22 23 24 25 26 27 28 29 30 31 32 33 34 35 36 37 38 39 40 41 42 43 44 45 46 47 48 49 50

000
ASUS43 KFSD 210010
RWRSD

WEATHER ROUNDUP FOR SOUTH DAKOTA
NATIONAL WEATHER SERVICE SIOUX FALLS SD
700 PM CDT FRI APR 20 2018

NOTE: "FAIR" INDICATES FEW OR NO CLOUDS BELOW 12,000 FEET WITH NO
SIGNIFICANT WEATHER AND/OR OBSTRUCTIONS TO VISIBILITY.


SDZ001>005-009-010-012>017-210100-
NORTHWEST AND NORTH CENTRAL SOUTH DAKOTA

CITY           SKY/WX    TMP DP  RH WIND       PRES   REMARKS
BUFFALO          N/A     52  38  58 SE31G39   30.05
FAITH            N/A     46  42  86 S23       30.22R
MOBRIDGE       CLOUDY    52  35  52 S15       30.24F
$$

SDZ012>016-024>037-041>051-057-063-072>074-210100-
SOUTHWEST AND SOUTH CENTRAL SOUTH DAKOTA

CITY           SKY/WX    TMP DP  RH WIND       PRES   REMARKS
RAPID CTY ARPT CLOUDY    40  39  97 SE22G28   30.21R FOG
PIERRE         CLOUDY    48  37  65 SE8       30.29R
CUSTER         LGT SNOW  32  30  92 S9        30.15R FOG     WCI  24
ELLSWORTH AFB  CLOUDY    41  41 100 S17       30.20
PHILIP         LGT RAIN  45  43  93 SE8       30.29R
PINE RIDGE     CLOUDY    41  38  89 E9        30.20R
SPEARFISH      CLOUDY    43  41  93 SE13      30.14R
WINNER         CLOUDY    45  35  68 E7        30.29R
$$

SDZ004>011-016>023-039-040-210100-
NORTHEAST SOUTH DAKOTA

CITY           SKY/WX    TMP DP  RH WIND       PRES   REMARKS
ABERDEEN       PTSUNNY   52  39  61 S9        30.34F
WATERTOWN      PTSUNNY   46  40  79 SE7       30.36S
BROOKINGS      PTSUNNY   46  40  79 SE10      30.37F
SISSETON         N/A     48  40  73 SE10      30.37R
$$

SDZ017-020-022-023-036>040-048>070-210100-
SOUTHEAST SOUTH DAKOTA

CITY           SKY/WX    TMP DP  RH WIND       PRES   REMARKS
SIOUX FALLS    CLOUDY    46  36  68 E9        30.36F
HURON          CLOUDY    47  38  71 SE7       30.34F
CHAMBERLAIN    CLOUDY    47  42  80 E6        30.32R
MITCHELL       CLOUDY    42  37  82 E5        30.35S
YANKTON        CLOUDY    53  38  56 E5        30.32F
$$

ABBREVIATIONS USED IN REMARKS
   TC - TEMPERATURE IN CELSIUS
  WCI - WIND CHILL INDEX
   HX - HEAT INDEX
  VSB - VISIBILITY





USA.gov is the U.S. government's official web portal to all federal, state and local government web resources and services.